DW6283 Weather Reports


time (UTC)temp
F
wind
direction
speed
knots
gust
knots
rain 1hr
in
rain 24hr
in
rain mn
in
humidity
%
barometer
mb
20260505053006 57 109 0.0 2.6 0.00 0.00 0.00 76 1013.5
20260505051553 57 109 0.0 3.5 0.00 0.00 0.00 76 1013.6
20260505041551 57 109 0.0 1.7 0.00 0.00 0.00 73 1013.5
20260505040051 58 109 0.0 0.0 0.00 0.00 0.00 73 1013.4
20260505034611 58 109 0.0 0.0 0.00 0.00 0.00 73 1013.4
20260505033053 58 109 0.0 0.0 0.00 0.00 0.00 73 1013.2
20260505031532 58 109 0.0 0.9 0.00 0.00 0.00 73 1013.2
20260505030032 59 109 0.0 1.7 0.00 0.00 0.00 72 1013.1
20260505024513 59 109 0.0 1.7 0.00 0.00 0.00 72 1013.0
20260505023014 59 109 0.0 0.9 0.00 0.00 0.00 71 1012.9
20260505021556 59 109 0.0 0.9 0.00 0.00 0.00 70 1012.8
20260505020058 59 109 0.0 1.7 0.00 0.00 0.00 70 1013.0
20260505014536 59 109 0.0 0.9 0.00 0.00 0.00 69 1013.0
20260505013035 60 109 0.0 2.6 0.00 0.00 0.00 68 1013.1
20260505011534 60 109 0.0 0.9 0.00 0.00 0.00 67 1013.3
20260505010017 60 109 0.0 1.7 0.00 0.00 0.00 67 1013.3
20260505004607 61 109 0.0 1.7 0.00 0.00 0.00 66 1013.4
20260505003057 61 109 0.0 3.5 0.00 0.00 0.00 64 1013.5
20260505001549 61 108 0.0 3.5 0.00 0.00 0.00 63 1013.6
20260505000055 61 107 0.0 0.9 0.00 0.00 0.00 63 1013.6
20260504234542 62 107 0.0 3.5 0.00 0.00 0.00 61 1013.8
20260504233054 62 219 0.0 1.7 0.00 0.00 0.00 62 1013.8
20260504231538 61 219 0.0 1.7 0.00 0.00 0.00 63 1013.9
20260504230036 61 219 0.0 1.7 0.00 0.00 0.00 63 1014.1
20260504224536 61 219 0.0 1.7 0.00 0.00 0.00 65 1014.1
20260504223032 60 219 0.0 0.9 0.00 0.00 0.00 67 1014.3
20260504221514 59 219 0.0 2.6 0.00 0.00 0.00 69 1014.5
20260504220014 59 219 0.0 2.6 0.00 0.00 0.00 70 1014.7
20260504214606 58 219 0.0 2.6 0.00 0.00 0.00 71 1014.8
20260504213056 58 219 0.9 3.5 0.00 0.00 0.00 70 1014.9
20260504211538 59 219 0.9 2.6 0.00 0.00 0.00 67 1015.0
20260504210038 59 218 0.0 1.7 0.00 0.00 0.00 67 1015.1
20260504204524 59 218 0.9 2.6 0.00 0.00 0.00 67 1015.1
20260504203021 59 218 0.9 3.5 0.00 0.00 0.00 67 1015.0
20260504201501 60 90 0.0 1.7 0.00 0.00 0.00 65 1015.0
20260504200105 60 90 0.0 0.9 0.00 0.00 0.00 65 1014.9
20260504194540 59 90 0.0 0.9 0.00 0.00 0.00 68 1015.0
20260504193039 59 90 0.0 1.7 0.00 0.00 0.00 68 1015.1
20260504191525 59 90 0.0 0.0 0.00 0.00 0.00 69 1015.1
20260504190026 58 90 0.0 0.9 0.00 0.00 0.00 70 1015.2
20260504184525 58 90 0.0 0.9 0.00 0.00 0.00 70 1015.2
20260504183023 58 90 0.0 0.0 0.00 0.00 0.00 68 1015.3
20260504181521 58 90 0.0 0.9 0.00 0.00 0.00 68 1015.1
20260504180020 58 90 0.0 0.9 0.00 0.00 0.00 68 1015.1
20260504174517 58 90 0.0 0.9 0.00 0.00 0.00 68 1014.8
20260504173020 58 90 0.0 2.6 0.00 0.00 0.00 69 1014.7
20260504171558 58 90 0.0 0.9 0.00 0.00 0.00 69 1014.6
20260504081516 56 123 0.0 1.7 0.00 0.00 0.00 70 1012.9